SCP
0 0 0 0 0 0 0 0 0 0 0 0 0 0 0 0 0 0 0 0 0 0 0 0 0 0 0 0 0 0 0 0 0 0 0 0 0 0
0 0 0 0 0 0 0 0 0 0 0 0 0 0 0 0 0 0 0 0 0 0 0 0 0 0 0 0 0 0 0 0 0 0 0 0 0 0
0 0 0 0 0 0 0 0 0 0 0 0 0 0 0 0 0 0 0 0 0 0 0 0 0 0 0 0 0 0 0 0 0 0 0 0 0 0
0 0 0 0 0 0 0 0 0 0 0 0 0 0 0 0 0 0 0 0 0 0 0 0 0 0 0 0 0 0 0 0 0 0 0 0 0 0
0 0 0 0 0 0 0 0 0 0 0 0 0 0 0 0 0 0 0 0 0 0 0 0 0 0 0 0 0 0 0 0 0 0 0 0 0 0
0 0 0 0 0 0 0 0 0 0 0 0 0 0 0 0 0 0 0 0 0 0 0 0 0 0 0 0 0 0 0 0 0 0 0 0 0 0
0 0 0 0 0 0 0 0 0 0 0 0 0 0 0 0 0 0 0 0 0 0 0 0 0 0 0 0 0 0 0 0 0 0 0 0 0 0
0 0 0 0 0 0 0 0 0 0 0 0 0 0 0 0 0 0 0 0 0 0 0 0 0 0 0 0 0 0 0 0 0 0 0 0 0 0
0 0 0 0 0 0 0 0 0 0 0 0 0 0 0 0 0 0 0 0 0 0 0 0 0 0 0 0 0 0 0 0 0 0 0 0 0 0
0 0 0 0 0 0 0 0 0 0 0 0 0 0 0 0 0 0 0 0 0 0 0 0 0 0 0 0 0 0 0 0 0 0 0 0 0 0
0 0 0 0 0 0 0 0 0 0 0 0 0 0 0 0 0 0 0 0 0 0 0 0 0 0 0 0 0 0 0 0 0 0 0 0 0 0
0 0 0 0 0 0 0 0 0 0 0 0 0 0 0 0 0 0 0 0 0 0 0 0 0 0 0 0 0 0 0 0 0 0 0 0 0 0
0 0 0 0 0 0 0 0 0 0 0 0 0 0 0 0 0 0 0 0 0 0 0 0 0 0 0 0 0 0 0 0 0 0 0 0 0 0
0 0 0 0 0 0 0 0 0 0 0 0 0 0 0 0 0 0 0 0 0 0 0 0 0 0 0 0 0 0 0 0 0 0 0 0 0 0
0 0 0 0 0 0 0 0 0 0 0 0 0 0 0 0 0 0 0 0 0 0 0 0 0 0 0 0 0 0 0 0 0 0 0 0 0 0
0 0 0 0 0 0 0 0 0 0 0 0 0 0 0 0 0 0 0 0 0 0 0 0 0 0 0 0 0 0 0 0 0 0 0 0 0 0
0 0 0 0 0 0 0 0 0 0 0 0 0 0 0 0 0 0 0 0 0 0 0 0 0 0 0 0 0 0 0 0 0 0 0 0 0 0
0 0 0 0 0 0 0 0 0 0 0 0 0 0 0 0 0 0 0 0 0 0 0 0 0 0 0 0 0 0 0 0 0 0 0 0 0 0
0 0 0 0 0 0 0 0 0 0 0 0 0 0 0 0 0 0 0 0 0 0 0 0 0 0 0 0 0 0 0 0 0 0 0 0 0 0
0 0 0 0 0 0 0 0 0 0 0 0 0 0 0 0 0 0 0 0 0 0 0 0 0 0 0 0 0 0 0 0 0 0 0 0 0 0
0 0 0 0 0 0 0 0 0 0 0 0 0 0 0 0 0 0 0 0 0 0 0 0 0 0 0 0 0 0 0 0 0 0 0 0 0 0
0 0 0 0 0 0 0 0 0 0 0 0 0 0 0 0 0 0 0 0 0 0 0 0 0 0 0 0 0 0 0 0 0 0 0 0 0 0
0 0 0 0 0 0 0 0 0 0 0 0 0 0 0 0 0 0 0 0 0 0 0 0 0 0 0 0 0 0 0 0 0 0 0 0 0 0
Wind_Speed
2 2 1 2 1 1 1 2 2 3 3 1 1 3 3 2 3 3 3 9 14 15 14 12 10 7 7 7 7 7 8 9 10 11 11 11 12 13
4 4 4 3 3 3 2 1 0 2 2 1 1 2 3 2 3 2 2 5 7 9 9 8 6 5 5 6 7 8 9 10 11 12 12 12 13 13
6 6 6 5 4 4 3 3 3 1 1 1 1 2 2 3 3 3 4 3 2 2 3 4 5 5 5 7 8 9 10 11 11 12 12 12 13 13
7 7 6 5 6 5 4 4 3 2 1 0 1 2 3 3 3 3 3 3 3 3 3 2 3 4 6 7 8 9 9 10 11 11 12 13 14 14
7 7 6 6 6 5 5 4 3 3 2 2 1 2 2 2 3 3 4 3 3 4 4 4 5 5 5 6 8 9 9 10 11 12 13 13 14 14
7 7 6 6 5 5 5 4 4 4 3 3 2 2 2 2 2 2 2 3 2 3 4 4 5 6 6 7 8 9 10 11 12 13 14 14 14 15
7 7 7 8 9 6 5 4 4 3 3 3 2 2 2 2 2 2 2 2 2 2 2 2 2 2 3 6 9 11 12 13 14 14 15 15 15 15
6 6 6 8 11 12 12 10 7 4 3 2 2 2 2 2 2 2 1 2 2 2 2 2 1 3 3 3 8 12 12 13 14 14 15 15 15 15
5 5 4 6 7 5 8 11 10 11 8 3 2 1 1 1 1 1 1 0 1 2 1 3 2 3 3 5 11 12 12 13 13 13 13 14 14 14
4 4 4 4 3 4 4 5 5 5 6 4 2 0 1 1 1 1 1 1 2 2 1 2 2 3 3 4 9 10 10 10 10 11 12 12 13 13
3 3 3 2 5 6 4 3 4 4 5 6 5 4 5 4 1 1 1 1 2 2 0 1 2 3 3 3 4 6 6 7 8 10 11 12 13 13
2 3 5 4 5 4 3 1 2 2 2 3 4 5 4 5 5 1 2 2 1 3 2 1 2 3 4 3 2 3 4 8 11 12 12 13 13 7
1 1 3 6 5 5 2 1 2 0 1 1 2 2 2 2 2 2 1 3 3 4 2 1 1 1 2 5 4 3 3 3 4 6 11 15 16 12
1 1 3 6 5 5 3 3 3 3 1 1 1 2 2 2 2 2 3 3 4 6 4 3 3 3 2 4 6 4 3 4 5 6 5 10 12 14
2 3 4 5 4 3 4 4 3 1 0 1 2 2 2 3 3 3 3 3 4 6 6 5 5 4 4 5 6 5 5 4 4 5 4 4 4 4
1 3 4 4 2 3 3 2 1 1 1 2 2 2 2 2 2 2 2 3 3 4 4 5 6 6 5 7 8 9 6 6 4 3 5 6 6 6
2 1 0 1 1 2 2 2 2 2 2 2 2 2 3 3 3 2 2 3 3 4 4 3 4 5 8 7 8 10 9 9 8 6 6 8 8 7
2 1 2 2 2 3 3 2 2 2 2 2 2 3 3 4 4 3 3 4 5 6 6 4 3 3 4 7 12 11 9 8 7 6 6 8 10 7
2 2 3 3 3 3 3 3 3 3 3 3 3 4 4 4 4 4 4 4 6 6 6 4 3 3 6 7 6 10 8 6 6 7 7 8 10 9
3 3 4 4 4 4 4 4 4 4 3 4 4 4 4 4 4 5 5 5 6 7 7 5 5 6 7 7 7 6 11 10 8 9 9 8 10 14
4 4 4 4 4 4 4 4 4 4 4 4 4 5 4 4 5 6 6 10 9 7 8 8 6 10 7 5 9 9 7 13 14 10 8 9 11 10
5 5 5 5 5 5 4 4 4 5 5 5 5 5 5 5 6 8 7 7 7 8 9 9 6 5 5 8 12 13 12 9 12 20 22 19 10 7
5 5 5 5 5 4 4 5 6 6 5 5 5 5 5 6 6 7 8 8 8 9 9 9 7 7 8 10 11 12 15 13 10 10 11 17 24 28
Wind_Direction
20 29 36 20 16 337 257 221 236 266 265 254 326 357 344 334 303 282 260 248 240 234 228 226 224 220 218 223 237 251 261 269 272 273 274 273 274 276
39 52 48 31 34 30 23 7 254 242 257 85 29 6 348 347 344 358 317 264 251 240 231 221 207 203 218 232 244 255 260 264 268 271 271 272 272 273
47 56 52 42 46 37 36 36 31 18 268 64 49 11 5 6 13 28 35 28 10 294 250 225 216 221 233 249 255 259 261 264 267 269 272 274 277 276
51 56 49 50 50 41 44 44 36 26 59 69 36 21 23 17 22 32 41 43 34 0 325 297 273 262 260 258 260 261 263 266 269 271 273 274 274 275
57 59 53 56 54 45 46 43 32 31 39 81 53 33 29 27 33 36 43 32 29 14 357 341 320 298 284 273 270 270 271 271 272 272 271 271 271 272
59 59 57 60 64 57 50 40 40 44 46 64 61 43 34 21 38 34 34 28 16 9 357 345 335 326 310 293 285 285 283 278 275 272 270 269 269 269
57 50 52 59 69 72 69 53 51 51 49 52 50 43 31 22 25 17 26 7 10 14 352 343 339 321 309 299 292 284 277 273 269 268 268 267 267 267
58 45 47 47 51 55 60 58 59 62 55 51 41 42 22 14 16 24 27 19 341 2 352 298 281 277 273 262 274 275 271 269 267 266 265 265 266 267
57 47 45 45 52 46 49 48 43 50 61 90 73 46 9 348 36 26 22 327 268 295 339 292 297 281 274 278 288 284 277 271 268 266 266 267 267 268
56 56 52 26 51 69 59 46 34 32 45 61 90 327 265 253 201 182 215 302 290 274 201 277 301 285 288 288 297 291 281 276 275 274 274 274 275 275
34 36 44 17 30 60 69 48 26 5 21 35 32 17 1 346 343 115 73 25 316 297 251 256 302 303 295 295 308 318 320 314 305 296 288 283 280 279
22 10 11 11 15 48 98 70 6 327 347 0 7 5 5 358 17 104 165 167 228 286 281 242 294 333 317 295 285 296 305 303 302 297 292 290 288 286
27 348 330 346 355 0 32 180 279 285 99 358 341 341 351 359 7 9 166 171 188 239 257 187 246 258 256 295 296 263 258 270 283 282 287 289 286 278
238 269 292 324 342 350 357 322 352 67 77 346 330 326 327 319 313 313 292 245 222 232 245 203 218 211 238 275 281 283 263 253 257 267 267 282 284 277
236 277 306 331 352 353 332 344 29 50 330 298 294 283 264 263 279 294 290 272 262 254 246 220 217 226 229 254 271 280 296 278 250 257 263 259 255 259
281 301 323 340 354 332 336 358 355 276 263 254 266 270 273 271 276 282 292 307 301 287 258 233 220 218 243 252 264 274 266 270 275 252 261 266 258 248
230 185 274 312 314 309 300 294 290 300 302 275 269 279 283 281 280 276 268 276 272 283 290 269 239 230 235 247 261 261 264 262 262 267 268 275 268 251
227 189 240 249 258 265 273 278 273 266 260 256 261 263 272 276 278 271 259 260 268 274 276 279 285 291 275 256 237 252 258 261 262 256 249 267 276 262
220 219 237 244 248 251 250 247 250 253 249 250 253 255 258 263 266 269 266 265 266 269 269 262 249 247 273 283 268 231 238 257 263 264 255 255 268 273
212 227 235 239 240 242 244 245 251 257 251 248 249 250 248 253 261 261 260 260 267 271 271 254 235 229 239 261 270 260 245 253 262 267 268 266 267 273
232 232 233 235 237 239 241 242 244 250 251 248 249 249 246 246 256 258 261 269 272 269 270 267 248 256 255 256 265 266 250 247 249 253 261 270 278 276
233 234 235 234 234 236 238 240 244 247 249 247 248 249 246 242 253 259 260 262 263 262 266 271 267 258 242 250 263 274 280 271 262 264 261 255 257 261
231 232 234 235 234 233 233 237 242 248 246 246 248 248 245 247 250 254 257 259 263 266 270 275 272 258 255 255 264 271 276 280 279 274 264 257 256 258